TimeEDT,TemperatureF,Dew PointF,Humidity,Sea Level PressureIn,VisibilityMPH,Wind Direction,Wind SpeedMPH,Gust SpeedMPH,PrecipitationIn,Events,Conditions,WindDirDegrees,DateUTC
12:53 AM,59.0,44.1,58,30.09,10.0,East,5.8,-,N/A,,Clear,80,2013-06-19 04:53:00
1:53 AM,57.0,45.0,64,30.10,10.0,ENE,3.5,-,N/A,,Clear,70,2013-06-19 05:53:00
2:53 AM,55.0,45.0,69,30.12,10.0,Calm,Calm,-,N/A,,Clear,0,2013-06-19 06:53:00
3:53 AM,54.0,43.0,66,30.13,10.0,Calm,Calm,-,N/A,,Clear,0,2013-06-19 07:53:00
4:53 AM,55.0,42.1,62,30.14,10.0,NE,4.6,-,N/A,,Clear,40,2013-06-19 08:53:00
5:53 AM,50.0,43.0,77,30.16,10.0,East,3.5,-,N/A,,Clear,90,2013-06-19 09:53:00
6:53 AM,53.1,43.0,69,30.17,10.0,East,4.6,-,N/A,,Clear,80,2013-06-19 10:53:00
7:53 AM,57.0,43.0,59,30.17,10.0,East,4.6,-,N/A,,Clear,80,2013-06-19 11:53:00
8:53 AM,62.1,44.1,52,30.18,10.0,East,8.1,-,N/A,,Clear,90,2013-06-19 12:53:00
9:53 AM,64.0,42.1,45,30.19,10.0,East,9.2,-,N/A,,Clear,100,2013-06-19 13:53:00
10:53 AM,68.0,43.0,40,30.17,10.0,East,6.9,-,N/A,,Clear,100,2013-06-19 14:53:00
11:53 AM,70.0,42.1,36,30.17,10.0,East,6.9,-,N/A,,Clear,100,2013-06-19 15:53:00
12:53 PM,72.0,42.1,34,30.17,10.0,East,6.9,-,N/A,,Clear,90,2013-06-19 16:53:00
1:53 PM,73.0,42.1,33,30.16,10.0,Calm,Calm,-,N/A,,Clear,0,2013-06-19 17:53:00
2:53 PM,75.0,44.1,33,30.14,10.0,Variable,3.5,-,N/A,,Clear,0,2013-06-19 18:53:00
3:53 PM,75.9,43.0,31,30.14,10.0,South,6.9,-,N/A,,Clear,170,2013-06-19 19:53:00
4:53 PM,75.9,45.0,33,30.12,10.0,Variable,6.9,-,N/A,,Clear,0,2013-06-19 20:53:00
5:53 PM,73.9,45.0,35,30.12,10.0,WNW,8.1,-,N/A,,Clear,290,2013-06-19 21:53:00
6:53 PM,73.0,45.0,37,30.11,10.0,WNW,6.9,-,N/A,,Clear,290,2013-06-19 22:53:00
7:53 PM,73.0,45.0,37,30.12,10.0,NNW,3.5,-,N/A,,Clear,330,2013-06-19 23:53:00
8:53 PM,70.0,45.0,41,30.12,10.0,West,3.5,-,N/A,,Clear,280,2013-06-20 00:53:00
9:53 PM,64.0,46.9,54,30.13,10.0,Calm,Calm,-,N/A,,Clear,0,2013-06-20 01:53:00
10:53 PM,60.1,52.0,75,30.14,10.0,Calm,Calm,-,N/A,,Clear,0,2013-06-20 02:53:00
11:53 PM,59.0,51.1,75,30.14,10.0,Calm,Calm,-,N/A,,Clear,0,2013-06-20 03:53:00